Location: C�mpuri de-Sus
(45.9500°N, 22.5500°E)
Time: 11:43:23
(UTC+00:00)

SWARM A - Pass Details

Date: 24 October 2021
Orbit: 424 x 429 km, 87.4° (Epoch: 06 December)

Event Time Altitude Azimuth Distance (km) Brightness Sun altitude
Rises 16:50:52 0° 172° (S) 2,387 7.9 -15.0°
Reaches altitude 10° 16:52:54 10° 168° (SSE) 1,527 6.9 -15.3°
Maximum altitude 16:56:09 57° 89° (E) 517 4.2 -15.9°
Drops below altitude 10° 16:59:25 10° 10° (N) 1,543 6.9 -16.5°
Sets 17:01:29 0° 6° (N) 2,417 7.9 -16.8°
